Location: Arbas
(42.9956°N, 0.9078°E)
Time: 14:30:02
(UTC+00:00)

Daily predictions for brighter satellites

Satellite Brightness Start Highest point End
(mag) Time Altitude Azimuth Time Altitude Azimuth Time Altitude Azimuth
FALCON 9 R/B 4.4 18:03:12 10° SW 18:08:55 32° SSE 18:31:05 10° ESE
STARLINK-1247 3.7 18:42:09 10° WSW 18:45:11 50° NNW 18:48:15 10° NE
STARLINK-1243 3.6 18:41:23 10° SW 18:45:27 84° SE 18:49:32 10° NE
STARLINK-1227 3.7 18:42:35 10° WSW 18:45:38 50° NNW 18:48:43 10° NE
STARLINK-1218 3.8 18:43:04 10° WSW 18:46:06 50° NNW 18:49:09 10° NE
Abrixas rocket 3.6 18:44:15 10° S 18:46:22 18° SE 18:48:30 10° E
STARLINK-1226 3.8 18:43:30 10° WSW 18:46:33 49° NNW 18:49:36 10° NE
STARLINK-1254 3.8 18:43:56 10° WSW 18:46:59 49° NNW 18:50:03 10° NE
STARLINK-1215 3.8 18:44:25 10° WSW 18:47:28 48° NNW 18:50:30 10° NE
STARLINK-1231 3.8 18:44:52 10° WSW 18:47:54 48° NNW 18:50:56 10° NE
STARLINK-1079 4.2 18:44:03 10° NW 18:47:56 44° NNE 18:51:48 10° E
STARLINK-1232 3.9 18:45:47 10° WSW 18:48:48 47° NNW 18:51:51 10° NE
STARLINK-1217 3.9 18:46:15 10° WSW 18:49:16 47° NNW 18:52:17 10° NE
STARLINK-1208 3.9 18:46:40 10° WSW 18:49:42 46° NNW 18:52:45 10° NE
Cosmos 2098 Rocket 4.4 18:46:35 10° NNW 18:49:59 40° W 18:54:08 10° SSW
STARLINK-1229 3.9 18:47:09 10° WSW 18:50:09 46° NNW 18:53:11 10° NE
STARLINK-1236 3.6 18:46:09 10° SW 18:50:13 90° WNW 18:54:19 10° NE
STARLINK-1271 3.9 18:47:36 10° WSW 18:50:36 45° NNW 18:53:38 10° NE
Cosmos 304 Rocket 3.9 18:46:08 10° NNW 18:50:51 53° ENE 18:55:31 10° SE
STARLINK-1270 3.9 18:48:04 10° WSW 18:51:04 45° NNW 18:54:06 10° NE
STARLINK-1154 4.0 18:48:31 10° WSW 18:51:31 45° NNW 18:54:33 10° NE
Cosmos 1709 Rocket 4.5 18:45:52 10° N 18:51:38 38° ENE 18:57:17 10° SE
STARLINK-1116 4.1 18:48:27 10° NW 18:52:23 47° NNE 18:56:17 10° ESE
STARLINK-1197 4.0 18:49:26 10° WSW 18:52:26 44° NNW 18:55:27 10° NE
SeaSat 1 3.7 18:47:54 10° NNE 18:52:37 46° WNW 18:57:18 10° SW
Cosmos 1269 Rocket 4.2 18:47:34 10° S 18:52:37 49° ESE 18:57:43 10° NNE
STARLINK-1189 4.0 18:49:53 10° WSW 18:52:52 44° NNW 18:55:54 10° NE
STARLINK-1187 4.2 18:50:47 10° W 18:53:45 39° NNW 18:56:44 10° NE
STARLINK-1188 4.0 18:50:48 10° WSW 18:53:47 43° NNW 18:56:47 10° NE
STARLINK-1198 4.0 18:50:48 10° WSW 18:53:47 43° NNW 18:56:48 10° NE
STARLINK-1235 4.4 18:51:34 10° W 18:54:29 35° NNW 18:57:25 10° NE
STARLINK-1199 4.1 18:52:45 10° WSW 18:55:44 42° NNW 18:58:45 10° NE
STARLINK-1191 4.1 18:53:12 10° WSW 18:56:11 41° NNW 18:59:12 10° NE
SL-08 ROCKET BODY 4.4 18:50:27 10° N 18:56:34 68° E 19:02:32 10° SSE
STARLINK-1210 4.1 18:53:40 10° WSW 18:56:39 41° NNW 18:59:40 10° NE
STARLINK-1221 4.1 18:54:06 10° WSW 18:57:06 41° NNW 19:00:07 10° NE
STARLINK-1219 4.2 18:54:35 10° WSW 18:57:33 40° NNW 19:00:34 10° NE
STARLINK-1222 4.2 18:55:02 10° WSW 18:58:01 40° NNW 19:01:01 10° NE
YAOGAN 1 3.7 18:54:16 10° S 18:58:27 49° W 19:02:40 10° NNW
STARLINK-1211 4.2 18:55:29 10° W 18:58:28 40° NNW 19:01:27 10° NE
STARLINK-1118 3.0 18:56:28 10° WNW 18:58:34 40° SW 19:00:38 10° SSE
STARLINK-1214 4.2 18:55:56 10° W 18:58:54 39° NNW 19:01:54 10° NE
ISS -1.6 18:56:43 10° NW 18:59:14 19° N 19:01:45 10° NE
STARLINK-1245 4.2 18:56:25 10° W 18:59:22 39° NNW 19:02:20 10° NE
STARLINK-1238 4.2 18:56:49 10° W 18:59:46 39° NNW 19:02:46 10° NE
STARLINK-1269 3.7 18:55:59 10° WSW 19:00:03 77° NW 19:04:09 10° NE
Cosmos 1455 Rocket 3.0 18:56:22 10° S 19:00:37 60° E 19:04:56 10° NNE
STARLINK-1205 4.2 18:57:44 10° W 19:00:42 38° NNW 19:03:39 10° NE
STARLINK-1204 4.3 18:58:14 10° W 19:01:10 38° NNW 19:04:07 10° NE
STARLINK-1094 3.9 18:57:41 10° NW 19:01:41 53° NNE 19:05:21 12° ESE
Cosmos 371 Rocket 4.1 18:57:40 10° NNW 19:02:23 54° WSW 19:07:05 10° S
Cosmos 2297 4.0 18:56:55 10° NNW 19:02:26 49° ENE 19:07:55 10° SE
S3M 4.1 18:58:04 10° S 19:04:26 88° E 19:10:53 10° N
STARLINK-1200 3.8 19:00:49 10° WSW 19:04:52 71° NW 19:08:57 10° NE
Cosmos 2237 Rocket 2.9 18:59:32 10° SW 19:05:04 58° WNW 19:10:38 10° NNE
STARLINK-1117 3.8 19:02:32 10° NW 19:06:32 57° NNE 19:10:00 13° ESE
Cosmos 1386 Rocket 4.4 19:01:34 10° N 19:07:39 83° E 19:13:39 10° S
Cosmos 1805 3.8 19:04:58 10° SSW 19:08:51 62° W 19:12:44 10° N
STARLINK-1192 4.0 19:05:35 10° WSW 19:09:38 66° NNW 19:13:42 10° NE
Cosmos 1892 Rocket 3.7 19:05:14 10° N 19:09:44 84° W 19:14:13 10° S
CZ-2C R/B 3.9 19:06:52 10° NE 19:10:21 18° E 19:13:48 10° SE
Cosmos 1626 Rocket 4.3 19:06:28 10° N 19:10:27 33° ENE 19:14:24 10° SE
STARLINK-1078 3.7 19:07:08 10° NW 19:11:11 62° NNE 19:14:28 15° ESE
BREEZE-M DEB (TANK) 3.5 19:00:21 10° WNW 19:12:40 68° SW 19:15:44 12° SE
Cosmos 2278 Rocket 3.5 19:08:05 10° NW 19:13:24 42° WSW 19:18:42 10° S
Meteor 2-5 Rocket 4.0 19:08:30 10° NNW 19:14:08 73° W 19:19:40 10° S
STARLINK-1244 4.1 19:10:32 10° WSW 19:14:33 61° NNW 19:18:37 10° NE
ARGOS 3.3 19:09:43 10° SE 19:14:57 53° ENE 19:20:11 10° N
STARLINK-1108 3.6 19:11:49 10° NW 19:15:52 66° NNE 19:18:58 16° ESE
Cosmos 1602 Rocket 4.4 19:14:27 10° N 19:18:28 32° ENE 19:21:45 14° SE
STARLINK-1138 4.2 19:15:09 10° WSW 19:19:11 57° NNW 19:23:13 10° NE
STARLINK-1071 3.6 19:16:27 10° NW 19:20:31 72° NE 19:23:27 18° ESE
Cosmos 494 Rocket 4.4 19:15:53 10° SSW 19:20:59 67° WNW 19:26:11 10° NNE
Okean 1-7 Rocket 3.8 19:17:22 10° NNW 19:21:46 73° W 19:26:07 10° S
USA 186 1.9 19:18:49 10° SSE 19:22:12 62° ENE 19:25:34 10° N
STARLINK-1143 4.3 19:20:05 10° WSW 19:24:05 53° NNW 19:28:07 10° NE
STARLINK-1110 3.5 19:20:55 10° NW 19:24:59 77° NE 19:27:43 20° ESE
Meteor 1-24 Rocket 3.8 19:19:53 10° NNW 19:25:24 79° W 19:30:44 10° S
STARLINK-1124 3.6 19:22:17 10° NW 19:26:28 79° NE 19:29:13 20° ESE
CZ-2C R/B 2.9 19:22:18 10° SSE 19:27:21 71° ENE 19:32:12 10° N
Cosmos 1544 Rocket 3.5 19:23:48 10° S 19:28:11 89° E 19:32:38 10° N
Cosmos 1470 2.7 19:26:28 10° S 19:30:15 56° E 19:34:04 10° NNE
Cosmos 1331 Rocket 4.3 19:25:46 10° NNW 19:30:54 67° WSW 19:36:00 10° S
Cosmos 883 Rocket 4.5 19:27:17 10° S 19:33:28 90° E 19:39:47 10° N
CZ-4 R/B 4.5 19:31:46 10° WSW 19:33:47 14° W 19:35:50 10° WNW
SPOT 3 Rocket 3.9 19:29:48 14° SE 19:34:08 47° ENE 19:39:07 10° N
STARLINK-1122 3.5 19:30:21 10° NW 19:34:26 89° NE 19:36:48 24° SE
MOS 1 4.2 19:30:21 10° SSE 19:35:59 85° ENE 19:41:41 10° NNW
STARLINK-1126 3.5 19:35:19 10° NW 19:39:25 84° SW 19:41:36 26° SE
SJ-6B 2.8 19:36:17 10° SSE 19:40:16 78° ENE 19:44:24 10° N
Cosmos 2369 Rocket 3.1 19:35:36 10° N 19:40:42 33° NE 19:43:14 23° E
H-2A R/B 4.1 19:32:47 10° W 19:42:00 19° SW 19:45:33 10° S
Cosmos 1726 3.5 19:42:57 22° ENE 19:42:57 22° ENE 19:45:08 10° NE
Ariane Rocket 3.5 19:38:17 10° S 19:43:17 60° WSW 19:48:19 10° NNW
STARLINK-1082 3.6 19:39:50 10° WNW 19:43:54 78° SW 19:45:54 29° SE
Cosmos 1758 3.2 19:40:08 10° S 19:44:12 77° E 19:48:18 10° N
Aureole 2 Rocket 3.8 19:43:05 10° N 19:45:57 23° ENE 19:45:57 23° ENE
NOSS 3-3 (A) 4.3 19:41:35 10° S 19:46:49 37° ESE 19:52:34 10° NE
NOSS 3-3 (C) 4.3 19:41:43 10° S 19:46:56 36° ESE 19:52:39 10° NE
Cosmos 1758 Rocket 4.4 19:43:28 10° NNE 19:47:18 29° ENE 19:47:54 28° E
STARLINK-1100 3.7 19:44:45 10° WNW 19:48:49 72° SW 19:50:39 31° SE
CZ-2C R/B 3.7 19:45:53 10° NNE 19:50:39 69° ESE 19:55:19 10° S
STARLINK-1084 4.5 19:49:34 10° NW 19:53:28 38° NNE 19:54:56 28° ENE
STARLINK-1083 3.7 19:49:31 10° WNW 19:53:34 66° SW 19:55:12 33° SSE
Cosmos 2184 Rocket 4.3 19:50:29 10° N 19:56:34 47° ENE 19:59:37 27° SE
IRIDIUM 106 4.3 19:51:38 10° N 19:56:48 61° E 20:00:12 21° SSE
STARLINK-1125 3.9 19:54:17 10° WNW 19:58:18 60° SW 19:59:48 35° SSE
SL-14 R/B 4.5 19:54:29 10° NNW 19:58:21 44° W 20:02:09 10° SSW
STARLINK-1098 4.4 19:54:33 10° NW 19:58:29 41° NNE 19:59:43 32° ENE
Cosmos 1943 3.7 20:01:05 31° SE 20:02:12 34° ESE 20:07:16 10° NE
Cosmos 1943 Rocket 2.2 19:56:49 10° NNW 20:02:19 60° ENE 20:04:35 34° SE
STARLINK-1109 4.0 19:58:53 10° WNW 20:02:53 55° SW 20:04:12 37° SSE
Meteor 1-21 Rocket 4.1 19:57:32 10° N 20:03:05 67° ENE 20:06:08 27° SSE
STARLINK-1123 4.3 19:59:30 10° NW 20:03:29 43° NNE 20:04:30 36° ENE
Meteor 2-10 4.2 20:00:44 18° SSE 20:04:33 53° E 20:09:54 10° NNE
SL-8 R/B 4.4 20:00:56 10° WNW 20:05:32 46° N 20:07:34 29° ENE
Resurs 1-3 3.5 20:05:32 36° SSE 20:07:16 75° ENE 20:11:39 10° N
STARLINK-1091 4.1 20:03:44 10° WNW 20:07:42 50° SW 20:08:50 38° S
STARLINK-1097 4.2 20:04:28 10° NW 20:08:29 46° NNE 20:09:16 40° ENE
Cosmos 1626 4.0 20:06:36 10° NNW 20:09:53 30° W 20:13:09 10° SSW
ATLAS 2AS CENTAUR R/B 4.0 20:04:29 10° NNW 20:11:07 30° NNE 20:14:22 22° ENE
STARLINK-1099 4.0 20:09:27 10° NW 20:13:29 49° NNE 20:14:04 45° ENE
H-2A R/B 3.4 20:08:59 10° SSW 20:13:56 39° W 20:18:49 10° NNW
Aureole 3 3.7 20:12:25 12° SSW 20:16:05 73° W 20:21:06 10° N
SL-08 RB Rocket 4.3 20:12:30 15° S 20:16:05 54° W 20:20:34 10° NNW
Resurs 01 Rocket 1.5 20:16:28 56° SE 20:17:11 67° ENE 20:21:34 10° N
USA 234 3.3 20:10:46 10° NE 20:17:19 79° NW 20:23:51 10° WSW
Cosmos 2154 Rocket 4.4 20:11:37 10° N 20:17:40 44° ENE 20:18:59 39° ESE
STARLINK-1072 4.4 20:14:07 10° WNW 20:17:55 40° SW 20:18:40 36° SSW
STARLINK-1104 3.9 20:14:25 10° NW 20:18:29 53° NNE 20:18:51 51° NE
SL-16 R/B 3.5 20:14:22 10° SW 20:19:41 40° WNW 20:25:01 10° NNE
DMSP B5D2-2 4.0 20:14:57 10° NNE 20:20:13 89° W 20:25:26 10° SSW
Cosmos 2228 3.9 20:22:39 35° NE 20:22:39 35° NE 20:25:28 10° NNE
Abrixas rocket 3.3 20:18:46 10° WSW 20:20:45 37° W 20:20:45 37° W
Cosmos 967 Rocket 4.5 20:15:41 10° SSW 20:21:58 60° ESE 20:28:21 10° NE
STARLINK-1144 3.8 20:19:23 10° NW 20:23:28 57° NNE 20:23:38 56° NE
Cosmos 1953 2.6 20:23:07 26° SSW 20:25:14 66° W 20:29:13 10° N
STARLINK-1103 3.8 20:24:21 10° NW 20:28:25 61° NNE 20:28:25 61° NNE
Nadezhda 1 Rocket 4.0 20:29:47 40° SSE 20:32:04 63° E 20:38:22 10° NNE
Cosmos 1992 Rocket 3.9 20:26:53 10° NNW 20:32:08 87° ENE 20:33:07 60° SSE
STARLINK-1101 3.8 20:29:19 10° NW 20:33:11 64° N 20:33:11 64° N
ISS -2.2 20:33:24 10° NW 20:35:39 33° NNW 20:35:39 33° NNW
STARLINK-1102 3.9 20:34:16 10° NW 20:37:58 64° NNW 20:37:58 64° NNW
MetOp-B 4.0 20:40:10 66° ESE 20:40:36 69° ENE 20:45:57 10° N
Cosmos 1603 3.6 20:35:39 10° SSW 20:41:18 90° WNW 20:46:57 10° NNE
Cosmos 2251 Rocket 3.9 20:36:56 10° SSW 20:42:14 66° WNW 20:47:37 10° NNE
Meteor 1-16 Rocket 4.0 20:40:19 35° SSW 20:42:41 84° W 20:48:10 10° N
STARLINK-1111 4.0 20:39:15 10° NW 20:42:45 60° NNW 20:42:45 60° NNW
Cosmos 2084 Rocket 3.6 20:39:16 10° NW 20:43:30 75° W 20:43:30 75° W
Cosmos 1703 4.4 20:41:17 10° N 20:43:49 38° N 20:43:49 38° N
ERS-1 Rocket 4.1 20:48:38 31° NE 20:48:38 31° NE 20:51:58 10° N
STARLINK-1073 4.2 20:44:14 10° NW 20:47:33 55° NW 20:47:33 55° NW
Cosmos 2074 Rocket 4.2 20:43:56 10° NNW 20:50:10 67° W 20:53:01 34° SSW
CZ-2C R/B 3.1 20:45:57 10° N 20:51:01 57° WNW 20:55:39 12° SSW
STARLINK-1121 4.4 20:49:12 10° NW 20:52:19 50° NW 20:52:19 50° NW
Cosmos 292 Rocket 4.4 20:52:03 10° NNW 20:56:40 48° WSW 20:57:04 47° WSW
Cosmos 1656 Rocket 3.8 20:56:52 10° NNW 21:02:03 63° NE 21:02:03 63° NE
Aureole 1 Rocket 4.3 21:01:50 60° SE 21:02:52 66° ESE 21:09:37 10° NNE
Cosmos 1610 Rocket 4.4 20:58:18 10° N 21:04:32 80° W 21:05:25 66° SSW
Meteor 1-11 4.2 20:58:51 10° N 21:04:29 82° NE 21:04:29 82° NE
COSMOS 2455 4.0 21:10:22 10° NNW 21:15:09 30° NE 21:15:09 30° NE
Cosmos 2341 Rocket 4.1 21:17:01 10° N 21:22:43 70° NNE 21:22:43 70° NNE
Cosmos 2369 Rocket 3.1 21:19:31 10° NW 21:24:47 40° WSW 21:25:03 40° WSW
NOSS 3-4 (A) 3.9 21:23:13 10° NNW 21:30:09 64° NE 21:30:09 64° NE
Terra 3.6 21:32:45 25° N 21:32:45 25° N 21:34:50 10° N
NOSS 3-4 (C) 3.9 21:23:19 10° NNW 21:30:14 63° NE 21:30:14 63° NE
Cosmos 1943 Rocket 4.1 21:41:39 10° NW 21:45:32 20° W 21:46:08 19° WSW
Resurs 01 Rocket 4.4 21:54:01 12° W 21:54:06 12° W 21:55:44 10° WNW
ATLAS 2AS CENTAUR R/B 3.0 21:55:24 10° NW 22:01:48 65° NW 22:01:48 65° NW
